SCP
0 0 0 0 0 0 0 0 0 0 0 0 0 0 0 0 0 0 0 0 0 0 0 0 0 0 0 0 0 0 0 0 0 0 0 0 0 0 0 0 0 0 0
0 0 0 0 0 0 0 0 0 0 0 0 0 0 0 0 0 0 0 0 0 0 0 0 0 0 0 0 0 0 0 0 0 0 0 0 0 0 0 0 0 0 0
0 0 0 0 0 0 0 0 0 0 0 0 0 0 0 0 0 0 0 0 0 0 0 0 0 0 0 0 0 0 0 0 0 0 0 0 0 0 0 0 0 0 0
0 0 0 0 0 0 0 0 0 0 0 0 0 0 0 0 0 0 0 0 0 0 0 0 0 0 0 0 0 0 0 0 0 0 0 0 0 0 0 0 0 0 0
0 0 0 0 0 0 0 0 0 0 0 0 0 0 0 0 0 0 0 0 0 0 0 0 0 0 0 0 0 0 0 0 0 0 0 0 0 0 0 0 0 0 0
0 0 0 0 1 0 0 0 0 0 0 0 0 0 0 0 0 0 0 0 0 0 0 0 0 0 0 0 0 0 0 0 0 0 0 0 0 0 0 0 0 0 0
0 0 0 1 1 1 0 0 0 0 0 0 0 0 0 0 0 0 0 0 0 0 0 0 0 0 0 0 0 0 0 0 0 0 0 0 0 0 0 0 0 0 0
0 0 0 1 1 1 1 0 0 0 0 0 0 0 0 0 0 0 0 0 0 0 0 0 0 0 0 0 0 0 0 0 0 0 0 0 0 0 0 0 0 0 0
1 1 0 0 1 1 1 0 0 0 0 0 0 0 0 0 0 0 0 0 0 0 0 0 0 0 0 0 0 0 0 0 0 0 0 0 0 0 0 0 0 0 0
1 1 1 0 0 0 0 0 0 0 0 0 0 0 0 0 0 0 0 0 0 0 0 0 0 0 0 0 0 0 0 0 0 0 0 0 0 0 0 0 0 0 0
1 1 1 0 0 0 0 0 0 0 0 0 0 0 0 0 0 0 0 0 0 0 0 0 0 0 0 0 0 0 0 0 0 0 0 0 0 0 0 0 0 0 0
1 1 1 0 0 0 0 0 0 0 0 0 0 0 0 0 0 0 0 0 0 0 0 0 0 0 0 0 0 0 0 0 0 0 0 0 0 0 0 0 0 0 0
1 1 1 0 0 0 0 0 0 0 0 0 0 0 0 0 0 0 0 0 0 0 0 0 0 0 0 0 0 0 0 0 0 0 0 0 0 0 0 0 0 0 0
1 1 1 0 0 0 0 0 0 0 0 0 0 0 0 0 0 0 0 0 0 0 0 0 0 0 0 0 0 0 0 0 0 0 0 0 0 0 0 0 0 0 0
0 1 1 1 0 0 0 0 0 0 0 0 0 0 0 0 0 0 0 0 0 0 0 0 0 0 0 0 0 0 0 0 0 0 0 0 0 0 0 0 0 0 0
0 0 1 1 0 0 0 0 0 0 0 0 0 0 0 0 0 0 0 0 0 0 0 0 0 0 0 0 0 0 0 0 -0 0 0 0 0 0 0 0 0 0 0
0 0 0 0 0 0 0 0 0 0 0 0 0 0 0 0 0 0 0 0 0 0 0 0 0 0 0 0 0 0 0 0 -0 -0 0 0 0 0 0 0 0 0 0
0 0 0 0 0 0 0 0 0 0 0 0 0 0 0 0 0 0 0 0 0 0 0 0 0 0 0 0 0 0 0 0 -0 -0 -0 0 0 0 0 0 0 0 0
0 0 0 0 0 0 0 0 0 0 0 0 0 0 0 0 0 0 0 0 0 0 0 0 0 0 0 0 0 0 0 0 -0 -0 -0 0 0 0 0 0 0 0 0
0 0 0 0 0 0 0 0 0 0 0 0 0 0 0 0 0 0 0 0 0 0 0 0 0 0 0 0 0 0 0 0 0 0 -0 0 0 0 0 0 0 0 0
0 0 0 0 0 0 0 0 0 0 0 0 0 0 0 0 0 0 0 0 0 0 0 0 0 0 0 0 0 0 0 0 0 0 0 0 0 0 0 0 0 0 0
0 0 0 0 0 0 0 0 0 0 0 0 0 0 0 0 0 0 0 0 0 0 0 0 0 0 0 -0 -0 -0 0 0 0 0 0 0 0 0 0 0 0 0 0
0 0 0 0 0 0 0 0 0 0 0 0 0 0 0 0 0 0 0 0 0 0 0 0 0 0 0 -0 -0 -0 0 0 0 0 0 0 0 0 0 0 0 0 0
0 0 0 0 0 0 0 0 0 0 0 0 0 0 0 0 0 0 0 0 0 0 0 0 0 0 0 0 0 -0 0 0 0 0 0 0 0 0 0 0 0 0 0
0 0 0 0 0 0 0 0 0 0 0 0 0 0 0 0 0 0 0 0 0 0 0 0 0 0 0 0 0 0 0 -0 0 0 0 0 0 0 0 0 0 0 0
0 0 0 0 0 0 0 0 0 0 0 0 0 0 0 0 0 0 0 0 0 0 0 0 0 0 0 0 0 0 0 0 0 0 0 0 0 0 0 0 0 0 0
Wind_Speed
7 9 11 11 12 12 12 12 12 12 12 12 12 13 13 12 13 13 13 14 14 14 15 15 16 16 17 17 17 17 17 17 17 17 16 16 16 17 17 16 14 12 17
10 11 11 11 12 12 12 12 13 12 12 12 12 13 13 13 13 13 13 13 13 14 14 15 15 16 16 16 16 16 16 15 15 14 14 13 14 16 17 16 15 11 17
11 12 11 12 13 12 12 13 13 12 12 12 12 12 12 12 13 13 13 13 13 14 14 15 15 15 16 15 15 14 14 13 13 12 10 8 10 16 16 16 16 16 16
11 11 10 12 13 13 13 13 12 12 12 12 12 12 12 12 12 12 13 13 13 14 14 15 15 15 15 14 14 13 13 13 12 12 8 8 8 14 16 16 16 16 16
10 10 11 12 13 13 13 13 12 12 12 12 12 12 12 12 12 13 13 13 13 14 14 14 15 14 14 14 13 13 13 13 13 11 8 8 7 14 16 16 16 16 16
10 10 11 13 13 13 13 13 12 12 12 11 11 11 11 12 12 13 13 13 14 14 14 14 14 14 14 13 13 13 13 13 11 8 8 8 7 14 15 16 15 15 15
9 10 11 13 13 13 13 12 12 12 11 11 11 11 11 12 12 13 13 13 13 14 14 14 14 14 13 13 13 14 13 12 9 8 7 7 9 15 15 15 15 15 15
9 9 10 12 12 12 12 12 12 11 11 11 11 11 11 12 12 12 13 13 13 14 14 13 13 13 13 13 13 14 13 12 9 9 7 7 11 14 15 14 14 14 14
8 8 8 8 9 10 11 11 11 11 11 11 11 11 11 11 12 12 12 12 13 13 13 13 13 13 13 13 13 14 13 12 8 6 8 6 11 13 14 14 13 14 13
7 7 7 7 7 6 7 10 10 10 10 10 11 11 11 10 10 11 11 12 13 13 13 12 12 13 13 13 13 13 12 10 7 7 5 7 12 13 13 13 13 13 13
6 6 7 6 6 6 6 8 9 9 10 9 8 10 8 5 5 7 9 11 12 12 12 12 12 12 11 11 12 12 10 6 7 6 5 9 12 12 12 13 13 13 13
7 6 6 6 6 6 6 5 5 5 5 5 4 5 4 4 4 7 10 11 11 11 10 11 10 9 7 4 7 8 5 6 6 5 5 11 11 11 12 12 13 13 13
7 6 6 6 6 6 4 4 3 3 3 4 5 5 4 4 4 5 3 5 5 6 4 5 4 3 4 4 4 5 6 5 4 4 6 11 11 11 12 12 12 12 12
7 6 5 5 5 5 4 4 4 3 3 3 4 4 4 3 3 3 3 3 3 2 3 2 2 4 5 5 6 6 6 5 4 4 6 11 11 12 12 12 12 12 12
6 6 5 5 5 5 4 4 4 3 4 3 3 3 5 4 4 3 3 3 3 2 3 3 3 5 5 5 5 6 6 6 5 5 5 12 11 11 12 11 11 11 11
6 6 5 5 5 5 4 4 3 3 4 3 3 4 5 4 4 4 4 3 3 2 3 3 4 4 4 4 5 6 6 5 5 5 4 7 12 12 11 11 11 10 10
6 6 6 5 5 5 4 4 4 4 4 4 3 3 4 4 4 4 4 3 3 3 4 4 5 4 4 5 5 5 5 5 5 5 4 4 5 10 12 11 11 10 10
5 6 6 5 5 5 4 4 3 3 4 3 3 3 4 4 4 4 4 3 3 3 3 4 4 4 4 4 4 4 4 4 4 4 4 4 3 4 8 12 11 10 10
6 5 5 5 5 5 4 4 4 3 3 3 3 3 4 4 4 4 4 3 4 4 3 4 3 4 4 4 4 3 3 3 3 4 4 4 4 4 4 7 10 10 10
6 6 6 5 5 4 4 3 3 3 3 3 3 3 4 3 4 4 4 4 4 4 3 3 4 4 4 4 4 4 3 2 2 2 3 3 3 4 4 4 4 6 8
4 5 6 6 5 5 4 4 4 4 4 3 3 4 4 4 4 4 4 4 4 4 4 5 5 5 3 3 3 2 2 2 2 2 2 2 3 3 3 3 3 3 3
4 5 5 5 5 5 4 4 3 3 3 3 3 4 4 4 4 4 5 4 4 4 5 5 5 3 2 2 2 2 1 1 2 2 1 1 2 2 2 3 2 2 2
3 4 3 5 5 4 4 3 3 3 3 2 3 3 4 5 4 4 5 4 5 4 5 5 5 4 4 2 1 2 3 2 0 1 1 1 1 1 1 1 2 2 2
3 3 3 4 5 4 4 5 6 5 5 4 4 4 4 5 5 5 5 5 5 4 5 5 4 3 4 3 1 0 1 3 3 1 1 1 1 1 1 1 1 1 2
3 3 3 3 4 4 4 4 5 5 3 3 4 5 4 4 5 5 5 4 5 4 5 5 4 4 3 3 2 1 1 1 1 2 1 1 1 1 0 0 0 0 1
1 2 3 4 4 4 5 5 4 5 5 6 5 5 4 3 4 5 5 5 4 4 5 5 5 5 4 3 2 2 3 2 2 2 2 1 1 2 1 1 0 1 0
Wind_Direction
123 132 136 130 125 121 118 112 107 101 96 93 90 86 83 81 82 80 78 76 74 72 70 69 69 68 68 67 66 66 66 66 66 65 62 61 66 70 71 68 67 68 70
127 134 135 128 126 121 117 112 106 101 98 94 91 88 86 84 84 82 80 78 76 73 72 71 70 70 69 67 66 65 65 66 65 64 61 59 63 68 69 68 69 72 71
127 132 135 128 125 120 116 112 107 103 100 96 93 89 87 85 85 83 81 80 77 75 73 72 71 71 70 68 66 64 63 61 60 58 57 60 64 68 71 72 72 74 73
128 132 134 129 126 122 118 114 109 105 101 97 93 90 87 87 86 84 83 81 79 77 75 73 72 70 69 67 65 62 57 53 53 54 57 57 60 69 70 72 73 74 73
127 130 131 130 128 124 120 116 112 108 104 99 94 92 89 87 85 83 83 81 79 78 76 75 73 71 69 65 62 58 53 51 50 55 57 56 57 67 68 69 72 73 72
128 130 132 131 129 125 122 119 115 111 107 103 99 96 93 90 87 84 83 82 81 80 78 76 73 70 68 63 57 52 50 49 55 56 54 55 57 66 67 68 70 72 73
127 129 135 133 131 128 125 121 117 113 109 104 101 99 97 93 90 87 85 86 84 82 80 76 73 71 67 61 55 50 50 52 58 56 56 56 60 66 65 67 69 71 72
123 127 132 132 130 128 127 123 119 115 110 106 103 100 98 96 93 90 89 88 86 83 81 78 75 73 68 61 55 49 48 53 61 62 58 59 65 66 65 64 66 69 71
116 123 129 133 128 127 125 122 119 116 114 110 106 101 96 95 95 93 90 90 87 86 83 78 75 73 67 61 54 49 49 49 52 57 63 59 64 67 66 65 65 67 70
114 119 128 131 130 128 127 124 119 116 114 111 106 101 96 94 95 94 91 90 88 87 84 80 76 73 66 60 54 50 48 47 54 53 56 62 64 66 67 67 67 66 67
125 126 129 129 128 130 129 126 121 117 115 111 109 106 101 97 97 96 94 91 89 87 85 83 79 74 65 56 50 46 47 53 50 50 49 62 65 67 68 68 67 66 66
147 142 137 136 137 134 134 128 129 127 124 117 117 114 104 99 94 93 91 91 90 88 86 83 77 71 63 51 44 45 54 52 54 50 50 59 64 67 69 69 67 66 66
146 141 143 144 142 139 133 133 128 126 126 121 122 118 111 102 98 94 94 90 90 88 84 84 72 61 59 52 52 54 54 53 53 49 45 56 62 66 68 69 68 66 65
150 148 146 143 144 140 135 138 136 130 126 127 135 127 117 110 106 108 104 104 99 91 90 77 70 65 63 57 58 60 56 56 55 52 46 51 59 64 66 69 70 68 65
152 151 153 149 146 145 142 143 136 134 135 130 132 124 119 119 118 113 108 102 96 97 91 83 77 72 67 60 59 61 62 59 58 54 45 46 51 59 64 66 69 69 66
158 157 154 152 148 145 147 144 140 133 128 124 124 126 121 124 125 121 112 106 97 96 93 89 85 80 72 68 62 58 57 56 58 58 53 45 47 50 56 60 63 67 67
163 157 160 158 149 148 149 146 139 138 135 132 128 124 121 121 123 119 118 115 111 103 98 94 86 83 79 73 65 57 54 53 54 52 49 46 43 45 51 54 57 61 63
164 160 165 160 152 150 146 141 139 139 135 134 133 129 126 127 124 120 121 121 120 113 108 108 104 97 89 82 73 62 54 49 49 51 50 47 44 42 46 49 48 54 57
167 163 161 158 157 155 144 139 134 136 134 135 133 132 132 133 131 126 128 126 121 117 117 120 109 110 105 94 84 68 55 50 44 52 52 48 48 50 47 44 41 47 51
165 163 161 159 156 149 142 128 128 134 133 135 138 142 140 139 137 132 132 132 123 123 121 121 118 108 109 109 92 69 51 47 46 48 52 50 47 52 50 45 34 36 45
159 166 166 163 162 158 158 154 155 161 158 152 148 143 143 141 137 138 136 138 134 136 138 134 127 119 115 115 94 71 33 37 58 44 40 51 52 54 52 45 42 34 31
171 174 171 169 167 174 173 167 155 155 158 153 150 145 147 145 140 139 144 148 144 141 141 141 138 132 146 150 127 121 109 16 17 30 50 67 63 56 56 47 47 45 39
171 178 181 179 174 175 167 151 134 128 128 146 163 161 158 154 152 153 154 152 152 153 159 157 159 153 161 191 164 142 150 180 351 350 30 48 52 51 51 48 49 46 43
185 182 183 182 177 173 168 168 167 175 175 180 173 161 161 162 159 159 161 158 160 162 165 170 169 164 157 169 196 76 147 146 146 157 324 349 33 33 39 48 45 45 37
184 181 182 178 180 174 175 175 179 182 173 150 146 155 163 166 165 164 162 161 167 168 168 171 171 171 171 171 174 166 123 115 128 150 220 270 316 302 338 66 101 67 25
165 173 173 179 182 178 177 182 185 182 168 161 164 167 167 166 166 169 167 168 172 173 174 174 175 174 177 174 174 170 165 171 183 164 181 223 258 274 273 266 198 180 166